Powrót do katalogu

STARLINK-11172

AktywnyŁącznośćVLEO
NORAD 60193·PAYLOAD·🇺🇸 United States

Wystrzelony Jul 3, 2024 z Cape Canaveral Space Force Station

Loading…

Następne Przeloty (najbliższe 24 godziny)

TLE

ŚwieżeSource: CelesTrak SupGP

Epoka: Sep 14, 2026, 13:58 UTC

1 60193C 24124L   26257.58243056  .00070708  00000+0  58261-3 0  2570
2 60193  53.1569 310.1674 0001299  84.2293 168.3409 15.69666883    11

Śledź STARLINK-11172 w czasie rzeczywistym z AllMySat

Download on the App Store